Theta_e
284 285 284 285 285 286 287 286 287 292 294 295 295 294 294 294 295 296 296 298 299 299 300 302 303 303 303
282 284 284 285 285 285 286 288 287 291 292 293 293 293 293 293 293 294 294 295 296 297 298 298 300 301 303
282 283 284 285 284 284 284 284 285 288 290 290 291 291 291 292 293 293 293 294 295 296 296 297 298 300 301
281 283 282 283 284 280 279 281 281 284 286 287 289 290 291 291 291 291 291 292 293 294 294 295 296 297 299
281 281 281 279 278 279 279 280 281 282 281 283 284 284 285 287 288 289 290 291 292 293 295 296 296 297 298
281 278 278 278 279 278 279 278 277 284 282 280 282 281 282 283 287 289 290 291 293 292 294 294 295 296 297
279 279 278 279 280 280 280 278 278 280 280 278 281 280 282 284 287 288 289 289 290 291 292 293 295 295 296
281 281 282 283 282 280 280 279 280 280 280 275 279 278 280 281 286 287 288 289 289 290 291 292 293 294 294
286 286 285 285 284 281 277 276 274 276 279 277 277 277 278 279 282 286 288 289 290 291 292 292 293 294 293
279 279 281 281 284 280 278 275 275 274 278 277 277 277 276 280 281 282 282 287 288 289 290 291 291 289 289
277 278 279 279 279 280 280 278 275 275 279 280 278 278 277 277 280 281 282 282 283 284 287 288 290 290 289
277 277 277 277 278 279 279 279 280 279 281 282 279 278 276 274 274 279 280 281 281 281 282 285 289 291 293
276 276 277 278 278 278 279 280 280 281 282 282 281 280 277 274 274 276 279 280 282 282 283 284 285 287 287
275 276 277 277 277 278 277 277 278 278 281 282 282 279 275 275 276 276 280 280 282 285 285 285 287 289 290
276 275 276 276 276 277 278 278 276 277 277 280 280 279 277 276 275 279 281 282 285 284 285 287 289 290 292
275 275 275 275 276 278 278 277 276 277 278 278 278 276 277 279 283 281 282 282 285 285 285 286 285 291 293
275 275 275 275 276 276 276 277 277 279 279 278 277 275 273 273 278 287 281 283 286 285 285 285 285 288 291
Wind_Speed
14 15 16 17 14 12 13 14 14 31 32 32 34 35 34 37 38 36 37 34 34 35 36 34 37 35 36
18 14 17 18 17 18 12 10 13 22 31 33 36 37 39 35 35 34 35 35 35 35 36 36 33 36 33
16 15 15 12 16 13 13 14 12 23 29 33 34 34 35 34 34 34 34 34 32 33 33 31 33 34 33
15 12 14 13 8 16 15 11 13 14 22 26 31 31 33 32 34 35 35 35 34 34 34 33 33 33 34
15 15 11 15 15 14 15 15 14 14 15 11 11 11 14 25 28 33 33 32 32 32 32 32 32 32 32
12 16 18 15 14 15 16 14 14 8 12 15 12 14 13 13 27 33 33 33 33 35 32 31 29 30 30
18 17 18 18 18 17 14 15 15 14 14 17 11 14 12 13 29 33 32 34 34 33 32 29 33 28 28
15 17 17 17 18 17 17 17 14 13 13 17 12 14 13 12 30 33 34 33 32 31 31 31 31 28 29
27 29 31 31 27 14 12 13 15 14 14 13 13 14 13 14 15 31 31 28 27 23 26 25 24 25 22
14 18 20 19 27 15 12 13 14 15 14 10 12 10 9 9 10 9 9 23 28 28 28 24 26 13 11
14 13 12 12 12 11 13 12 13 13 16 13 10 7 8 10 6 8 10 12 11 14 23 26 26 22 10
12 12 12 12 12 13 16 15 13 16 17 15 10 8 9 11 12 7 9 10 10 10 9 15 23 25 27
12 13 12 13 14 13 14 16 16 15 12 15 12 11 6 9 10 11 13 6 6 9 9 9 9 8 9
12 12 12 10 12 11 12 12 11 12 11 11 10 8 8 8 8 12 11 6 5 7 5 7 9 9 9
12 12 12 12 12 11 10 11 10 11 11 9 11 9 6 9 8 10 9 7 6 6 4 5 7 3 6
12 11 11 12 12 12 10 10 10 10 8 9 8 8 4 4 7 9 6 5 6 7 6 12 11 9 7
11 11 11 11 15 10 10 10 10 8 7 8 7 4 5 6 6 24 7 8 7 10 10 11 12 11 12
Wind_Direction
295 298 298 294 293 283 279 277 281 290 295 296 294 293 292 294 288 287 284 286 284 279 280 281 280 276 272
298 300 291 300 298 293 289 293 285 290 285 287 290 297 288 288 285 290 284 279 276 273 272 273 273 274 271
289 288 298 297 291 301 298 283 283 288 289 288 287 290 289 287 285 286 286 286 284 281 280 276 276 276 269
285 295 295 304 295 299 302 292 290 284 282 281 281 282 284 287 289 288 287 284 282 278 275 273 269 267 269
297 291 300 306 304 303 293 293 286 282 281 282 282 275 277 281 280 280 280 276 271 272 272 270 271 264 260
299 304 302 300 300 291 291 292 297 280 292 287 280 280 277 270 271 275 275 275 275 281 269 273 275 267 262
302 296 295 295 295 297 304 296 292 296 289 287 284 277 272 268 275 280 279 279 274 275 271 277 270 264 270
290 292 290 298 303 305 300 295 288 287 284 283 285 278 282 274 274 276 275 279 280 272 266 268 263 263 259
306 309 310 307 307 304 301 300 295 293 291 285 285 283 279 275 269 272 276 275 266 267 268 262 261 259 259
317 309 305 297 303 301 294 290 291 293 289 292 291 287 284 265 262 261 259 268 273 276 272 267 263 255 251
307 301 301 299 299 294 289 287 289 286 289 298 291 293 287 293 277 270 263 272 266 264 268 266 256 248 248
305 307 308 305 303 298 294 287 280 280 287 292 285 286 287 298 294 291 286 270 262 257 248 246 249 241 237
309 306 304 301 298 296 295 292 289 283 289 289 284 287 275 282 284 294 305 286 259 259 249 240 230 223 226
306 304 305 305 304 304 303 305 304 309 307 300 307 292 287 268 275 291 298 299 277 289 265 238 202 202 206
310 309 309 309 310 309 305 308 308 312 318 330 327 316 252 259 290 298 309 314 322 332 338 56 53 97 173
309 308 310 313 313 317 315 316 314 316 322 330 328 339 329 290 301 327 329 329 344 5 25 68 48 34 59
306 310 309 308 318 312 318 318 318 326 329 334 327 337 344 351 314 9 3 356 25 41 43 53 64 54 62